Wind_Speed
2 4 3 5 10 9 11 15 16 18 17 17 18 16 17 13 13 17 21 23 26 29 31 34 36 38 41 43 44 46 48 48
2 5 3 4 10 14 15 18 18 18 19 16 13 13 15 17 21 24 28 30 34 35 37 38 40 43 45 46 46 48 50 50
8 9 8 9 12 18 22 22 20 20 17 12 15 17 21 25 27 31 35 38 41 43 44 45 47 48 48 49 49 52 54 53
13 14 17 19 21 20 21 19 21 14 15 18 19 22 26 30 33 37 41 44 46 47 48 49 50 50 50 51 52 55 56 55
12 18 20 24 26 24 21 17 13 16 18 22 24 28 32 35 38 42 46 48 50 51 51 53 55 56 54 56 57 58 57 56
16 15 21 25 26 24 18 12 14 19 22 27 29 33 37 41 44 46 48 50 51 53 55 57 57 55 55 61 59 59 58 54
18 18 20 23 21 15 14 14 19 25 29 32 36 39 43 46 49 51 53 55 56 56 57 58 57 53 61 62 62 61 58 59
20 17 15 14 13 15 17 20 24 29 33 37 41 45 48 51 53 55 57 58 57 58 57 55 50 61 61 61 62 61 62 63
12 8 7 12 15 18 22 25 28 32 37 42 46 49 51 52 54 55 56 56 57 56 55 52 56 60 62 62 62 63 65 67
10 11 13 17 21 25 29 32 34 37 39 43 48 51 52 54 55 56 55 55 56 55 55 53 59 61 63 62 64 67 69 70
16 20 20 22 26 31 35 38 40 42 43 45 48 52 53 54 55 55 55 55 55 57 55 54 57 61 62 63 67 70 70 73
21 24 27 29 32 35 39 44 47 46 45 46 48 53 53 53 54 55 55 55 50 59 58 59 60 62 64 67 69 72 73 76
28 31 33 34 36 39 43 48 49 48 46 46 48 52 53 53 54 55 55 51 54 58 58 60 60 65 69 74 73 77 81 82
35 36 38 39 42 43 42 44 49 51 49 49 51 54 54 54 55 54 54 57 57 58 60 61 65 71 77 80 79 82 87 78
40 42 44 45 44 46 47 44 47 48 49 49 53 54 53 54 55 55 57 58 55 58 62 65 70 74 78 82 85 85 77 70
45 48 48 41 47 49 46 47 47 50 49 52 56 52 53 56 56 57 57 58 61 61 66 69 71 76 82 89 77 65 69 77
46 48 49 47 46 45 42 48 48 47 49 52 52 54 56 57 56 58 61 66 67 75 81 82 83 85 87 69 65 74 79 80
45 47 49 51 52 50 45 43 42 46 48 52 56 56 57 56 57 60 64 69 72 75 84 88 81 85 71 66 72 78 79 67
50 49 47 46 46 45 41 41 44 47 52 55 55 56 57 59 62 66 66 71 73 86 87 81 75 68 65 74 79 71 64 59
Wind_Direction
238 237 114 357 314 315 310 309 312 316 324 320 310 304 319 327 323 326 324 321 320 324 324 324 323 322 320 321 320 318 316 312
268 270 288 322 299 306 307 309 322 318 321 313 313 321 332 330 329 327 319 316 318 322 322 322 320 318 320 318 316 315 314 312
301 300 316 314 309 311 322 323 325 320 324 328 325 333 329 324 323 319 316 318 320 320 318 317 316 316 315 315 314 314 313 310
312 317 328 325 321 320 325 314 317 324 323 321 322 323 320 319 320 316 316 317 316 315 315 313 310 309 311 312 312 312 311 309
308 308 323 322 323 320 319 313 312 315 320 318 318 319 317 315 314 313 314 313 312 312 310 310 309 309 308 311 309 309 309 306
306 312 315 319 317 317 315 310 309 310 316 314 314 312 313 312 312 310 309 307 307 306 308 310 309 306 303 306 307 309 308 308
309 317 314 308 310 310 302 299 307 309 311 310 309 310 309 307 307 306 306 307 308 309 309 308 308 306 304 307 310 310 309 309
306 312 313 308 306 304 300 301 303 305 306 308 308 307 307 306 307 307 307 308 309 309 309 308 303 306 307 308 310 309 310 309
310 329 315 299 296 296 296 298 300 303 306 306 304 304 304 305 305 305 307 307 306 307 307 303 298 305 308 310 309 308 308 307
283 281 293 298 298 299 301 302 303 304 305 305 303 303 303 302 304 305 305 306 306 307 307 300 300 302 305 307 307 306 308 309
298 299 297 297 300 302 302 302 303 305 306 304 302 301 301 303 303 304 305 306 307 308 306 303 303 304 305 304 305 307 308 309
295 297 300 302 302 303 303 301 302 304 305 304 302 300 301 303 304 304 305 306 298 304 306 304 302 304 304 304 305 307 309 310
294 294 297 299 300 302 302 301 301 306 307 304 302 299 302 303 303 304 304 302 295 300 305 304 304 304 304 303 305 306 306 304
300 300 299 299 300 301 302 302 304 305 308 306 302 302 305 304 303 304 302 302 301 306 307 305 303 303 303 304 306 307 306 305
301 303 307 306 305 305 303 300 299 305 305 303 302 303 304 303 304 305 303 304 303 301 304 304 306 308 305 305 305 306 305 303
304 308 306 302 301 304 299 296 298 304 304 300 300 306 305 306 306 305 303 303 302 304 305 307 311 314 310 308 308 305 307 313
299 297 300 300 303 297 292 297 299 294 295 295 299 306 305 307 308 306 305 302 304 303 301 299 296 298 307 306 303 310 314 325
293 298 301 303 303 302 302 296 291 293 293 297 308 307 307 306 306 308 309 307 302 302 299 296 297 304 306 302 306 314 323 322
299 299 300 301 302 303 301 295 293 294 299 304 306 306 306 307 307 304 305 308 304 299 295 296 304 304 299 308 317 324 321 314
Height
5796 5798 5801 5801 5799 5800 5800 5800 5800 5799 5798 5796 5795 5795 5793 5792 5791 5788 5785 5784 5782 5777 5774 5769 5765 5762 5758 5754 5751 5746 5742 5738
5796 5796 5800 5800 5799 5798 5799 5798 5797 5795 5794 5792 5790 5789 5787 5785 5783 5782 5779 5778 5775 5769 5766 5761 5758 5754 5750 5746 5742 5737 5731 5726
5794 5794 5797 5797 5797 5795 5792 5789 5789 5788 5787 5786 5785 5782 5780 5778 5779 5775 5771 5767 5763 5759 5757 5753 5748 5744 5739 5734 5730 5725 5719 5713
5794 5793 5794 5793 5792 5791 5790 5789 5786 5785 5784 5782 5781 5779 5777 5775 5772 5768 5764 5761 5757 5754 5750 5745 5740 5735 5729 5724 5718 5713 5706 5699
5791 5789 5791 5791 5788 5787 5788 5786 5784 5783 5782 5779 5777 5774 5772 5769 5767 5763 5758 5754 5750 5746 5741 5736 5729 5723 5717 5712 5706 5701 5694 5687
5789 5788 5787 5787 5786 5783 5783 5783 5782 5779 5779 5776 5774 5770 5769 5765 5761 5757 5753 5749 5745 5739 5732 5724 5717 5712 5706 5701 5694 5688 5681 5674
5782 5784 5784 5783 5782 5782 5781 5780 5778 5775 5774 5771 5768 5764 5761 5758 5753 5749 5743 5737 5731 5725 5719 5712 5705 5699 5693 5687 5679 5672 5665 5659
5778 5780 5779 5779 5779 5778 5777 5776 5775 5771 5768 5764 5760 5756 5752 5746 5741 5735 5729 5723 5718 5713 5707 5700 5693 5687 5680 5673 5666 5658 5650 5643
5776 5776 5777 5778 5777 5775 5773 5772 5770 5767 5762 5757 5752 5747 5742 5737 5732 5726 5720 5714 5707 5701 5695 5689 5683 5675 5668 5660 5652 5644 5637 5629
5775 5776 5775 5773 5771 5770 5767 5765 5763 5760 5755 5749 5743 5737 5732 5727 5721 5715 5709 5702 5694 5689 5683 5676 5670 5662 5655 5647 5638 5629 5621 5613
5768 5767 5769 5770 5767 5764 5760 5756 5753 5750 5746 5741 5734 5726 5720 5715 5709 5703 5697 5690 5682 5676 5670 5663 5655 5649 5641 5633 5624 5614 5605 5595
5765 5764 5762 5761 5759 5755 5750 5746 5742 5740 5736 5730 5723 5715 5709 5703 5697 5691 5685 5678 5672 5664 5657 5650 5642 5635 5627 5618 5609 5598 5587 5577
5759 5758 5756 5754 5751 5748 5742 5735 5730 5727 5723 5718 5711 5702 5697 5691 5685 5678 5672 5665 5659 5652 5644 5636 5628 5619 5611 5601 5592 5583 5572 5561
5749 5747 5745 5743 5740 5736 5731 5725 5719 5715 5711 5705 5697 5689 5684 5677 5671 5665 5658 5651 5644 5636 5629 5621 5613 5603 5594 5583 5575 5566 5554 5543
5739 5735 5731 5728 5724 5721 5717 5714 5709 5705 5700 5693 5684 5677 5671 5665 5659 5652 5644 5637 5628 5621 5613 5604 5596 5586 5576 5564 5555 5547 5537 5526
5730 5725 5722 5719 5714 5709 5704 5698 5695 5691 5686 5678 5671 5666 5659 5653 5646 5639 5630 5622 5615 5606 5597 5588 5578 5569 5559 5548 5538 5529 5519 5509
5725 5720 5715 5711 5707 5702 5696 5691 5686 5680 5674 5667 5660 5654 5645 5639 5632 5624 5616 5608 5600 5592 5582 5573 5562 5552 5540 5530 5522 5512 5501 5490
5716 5710 5704 5700 5695 5690 5686 5680 5675 5669 5661 5653 5648 5640 5633 5626 5619 5611 5602 5593 5584 5573 5562 5552 5544 5535 5525 5514 5503 5494 5484 5473
5703 5699 5695 5690 5684 5680 5676 5669 5663 5656 5649 5642 5636 5628 5620 5612 5605 5596 5586 5576 5566 5556 5544 5534 5526 5518 5509 5496 5485 5476 5468 5458